Weather History for KCIU - December, 2012

Change the Weather History Date:

Saturday, December 29, 2012

  Actual Average (KANJ) Record (KANJ)
Temperature  
Mean Temperature 16 °F 18 °F  
Max Temperature 24 °F 25 °F 41 °F (2003)
Min Temperature 8 °F 11 °F -24 °F (1933)
Degree Days  
Heating Degree Days 49 47  
Month to date heating degree days 1232  
Since 1 July heating degree days 3164  
Moisture  
Dew Point 15 °F    
Average Humidity 93    
Maximum Humidity 100    
Minimum Humidity 86    
Precipitation  
Precipitation 0.00 in 0.08 in 0.56 in (1955)
Month to date precipitation 2.64  
Year to date precipitation 32.80  
Snow  
Snow 0.00 in 1.10 in 6.50 in (1988)
Month to date snowfall 31.3  
Since 1 July snowfall 48.0  
Snow Depth -    
Sea Level Pressure  
Sea Level Pressure 29.93 in    
Wind  
Wind Speed 4 mph (NNW)    
Max Wind Speed 10 mph    
Max Gust Speed -    
Visibility 10 miles    
Events      
T = Trace of Precipitation, MM = Missing Value Source: NWS Daily Summary

Daily Weather History Graph

Daily Weather History Graph

Search for Another Location

Airport or City:

Trip Planner

Search our weather history database for the weather conditions in past years. The results will help you decide how hot, cold, wet, or windy it might be!

Date:

Astronomy

Dec. 29, 2012 Rise Set
Actual Time 8:20 AM EST 5:00 PM EST
Civil Twilight 7:45 AM EST 5:34 PM EST
Nautical Twilight 7:07 AM EST 6:12 PM EST
Astronomical Twilight 6:31 AM EST 6:49 PM EST
Moon 6:38 PM EST (12/29) 8:48 AM EST (12/29)
Length of Visible Light 9h 48m
Length of Day
8h 39m
Full, 98% of the Moon is Illuminated
Dec 29
Full
Jan 4
Last Quarter
Jan 11
New
Jan 18
First Quarter
Jan 26
Full

Hourly Weather History & Observations

Time (EST) Temp. Windchill Dew Point Humidity Pressure Visibility Wind Dir Wind Speed Gust Speed Precip Events Conditions
12:15 AM 12.2 °F 4.3 °F 12.2 °F 100% 29.99 in 10.0 mi NE 4.6 mph - N/A   Overcast
12:35 AM 12.2 °F 4.3 °F 10.4 °F 92% 29.98 in 10.0 mi NE 4.6 mph - N/A   Overcast
12:55 AM 12.2 °F 4.3 °F 12.2 °F 100% 29.96 in 10.0 mi NNE 4.6 mph - N/A   Mostly Cloudy
1:15 AM 12.2 °F 4.3 °F 10.4 °F 92% 29.96 in 10.0 mi North 4.6 mph - N/A   Clear
1:35 AM 10.4 °F 2.2 °F 10.4 °F 100% 29.95 in 10.0 mi North 4.6 mph - N/A   Scattered Clouds
1:55 AM 10.4 °F 4.0 °F 8.6 °F 92% 29.95 in 10.0 mi North 3.5 mph - N/A   Scattered Clouds
2:15 AM 8.6 °F - 8.6 °F 100% 29.95 in 10.0 mi Calm Calm - N/A   Mostly Cloudy
2:35 AM 8.6 °F - 6.8 °F 92% 29.95 in 10.0 mi Calm Calm - N/A   Overcast
2:55 AM 8.6 °F 2.0 °F 8.6 °F 100% 29.95 in 10.0 mi NE 3.5 mph - N/A   Overcast
3:15 AM 10.4 °F 2.2 °F 10.4 °F 100% 29.95 in 10.0 mi NE 4.6 mph - N/A   Overcast
3:35 AM 10.4 °F 4.0 °F 10.4 °F 100% 29.95 in 10.0 mi ENE 3.5 mph - N/A   Overcast
3:55 AM 10.4 °F 4.0 °F 8.6 °F 92% 29.95 in 10.0 mi NE 3.5 mph - N/A   Overcast
4:15 AM 12.2 °F 2.9 °F 10.4 °F 92% 29.95 in 10.0 mi NE 5.8 mph - N/A   Overcast
4:35 AM 12.2 °F 2.9 °F 10.4 °F 92% 29.94 in 10.0 mi NE 5.8 mph - N/A   Overcast
4:55 AM 12.2 °F 4.3 °F 10.4 °F 92% 29.95 in 10.0 mi NNE 4.6 mph - N/A   Overcast
5:15 AM 12.2 °F 2.9 °F 10.4 °F 92% 29.94 in 10.0 mi NNE 5.8 mph - N/A   Overcast
5:35 AM 12.2 °F 2.9 °F 10.4 °F 92% 29.94 in 10.0 mi NNE 5.8 mph - N/A   Overcast
5:55 AM 12.2 °F 1.7 °F 10.4 °F 92% 29.93 in 10.0 mi NE 6.9 mph - N/A   Overcast
6:15 AM 12.2 °F 1.7 °F 10.4 °F 92% 29.93 in 10.0 mi NE 6.9 mph - N/A   Overcast
6:35 AM 12.2 °F 1.7 °F 10.4 °F 92% 29.93 in 10.0 mi NE 6.9 mph - N/A   Overcast
6:55 AM 12.2 °F 6.1 °F 10.4 °F 92% 29.93 in 10.0 mi NE 3.5 mph - N/A   Overcast
7:15 AM 12.2 °F - 10.4 °F 92% 29.94 in 10.0 mi Calm Calm - N/A   Overcast
7:35 AM 10.4 °F 4.0 °F 8.6 °F 92% 29.94 in 10.0 mi ENE 3.5 mph - N/A   Overcast
7:55 AM 10.4 °F 2.2 °F 10.4 °F 100% 29.93 in 10.0 mi NE 4.6 mph - N/A   Overcast
8:15 AM 10.4 °F 4.0 °F 8.6 °F 92% 29.93 in 10.0 mi ENE 3.5 mph - N/A   Overcast
8:35 AM 12.2 °F 6.1 °F 10.4 °F 92% 29.93 in 10.0 mi ENE 3.5 mph - N/A   Overcast
8:55 AM 12.2 °F 4.3 °F 10.4 °F 92% 29.92 in 10.0 mi ENE 4.6 mph - N/A   Overcast
9:15 AM 12.2 °F 4.3 °F 10.4 °F 92% 29.92 in 10.0 mi ENE 4.6 mph - N/A   Overcast
9:35 AM 12.2 °F 2.9 °F 12.2 °F 100% 29.93 in 3.0 mi NNE 5.8 mph - N/A   Overcast
9:55 AM 12.2 °F 6.1 °F 12.2 °F 100% 29.93 in 2.5 mi North 3.5 mph - N/A   Overcast
10:15 AM 12.2 °F - 12.2 °F 100% 29.93 in 5.0 mi Calm Calm - N/A   Overcast
10:35 AM 12.2 °F - 10.4 °F 92% 29.93 in 10.0 mi Calm Calm - N/A   Overcast
10:55 AM 15.8 °F - 14.0 °F 93% 29.94 in 10.0 mi Calm Calm - N/A   Overcast
11:15 AM 19.4 °F - 17.6 °F 93% 29.92 in 10.0 mi Calm Calm - N/A   Overcast
11:35 AM 17.6 °F - 15.8 °F 93% 29.92 in 10.0 mi Calm Calm - N/A   Overcast
11:55 AM 19.4 °F - 17.6 °F 93% 29.91 in 10.0 mi Calm Calm - N/A   Overcast
12:15 PM 21.2 °F - 19.4 °F 93% 29.90 in 10.0 mi Calm Calm - N/A   Overcast
12:35 PM 24.8 °F 20.5 °F 21.2 °F 86% 29.89 in 10.0 mi NNW 3.5 mph - N/A   Overcast
12:55 PM 21.2 °F 13.6 °F 19.4 °F 93% 29.88 in 10.0 mi NW 5.8 mph - N/A   Overcast
1:15 PM 21.2 °F 13.6 °F 17.6 °F 86% 29.88 in 10.0 mi WNW 5.8 mph - N/A   Overcast
1:35 PM 21.2 °F 12.6 °F 17.6 °F 86% 29.87 in 10.0 mi WNW 6.9 mph - N/A   Overcast
1:55 PM 21.2 °F 10.9 °F 19.4 °F 93% 29.87 in 10.0 mi WNW 9.2 mph - N/A   Overcast
2:15 PM 23.0 °F 13.9 °F 19.4 °F 86% 29.87 in 10.0 mi NW 8.1 mph - N/A   Overcast
2:35 PM 23.0 °F 12.4 °F 19.4 °F 86% 29.87 in 10.0 mi NW 10.4 mph - N/A   Overcast
2:55 PM 23.0 °F 12.4 °F 19.4 °F 86% 29.87 in 10.0 mi NW 10.4 mph - N/A   Overcast
3:15 PM 23.0 °F 12.4 °F 19.4 °F 86% 29.88 in 10.0 mi WNW 10.4 mph - N/A   Overcast
3:35 PM 23.0 °F 13.1 °F 19.4 °F 86% 29.88 in 10.0 mi WNW 9.2 mph - N/A   Overcast
3:55 PM 24.8 °F 16.9 °F 21.2 °F 86% 29.89 in 10.0 mi NW 6.9 mph - N/A   Overcast
4:15 PM 24.8 °F 17.9 °F 21.2 °F 86% 29.89 in 10.0 mi West 5.8 mph - N/A   Overcast
4:35 PM 24.8 °F 17.9 °F 21.2 °F 86% 29.90 in 10.0 mi West 5.8 mph - N/A   Overcast
4:55 PM 24.8 °F 20.5 °F 21.2 °F 86% 29.90 in 10.0 mi West 3.5 mph - N/A   Overcast
5:15 PM 21.2 °F 16.4 °F 19.4 °F 93% 29.90 in 10.0 mi WNW 3.5 mph - N/A   Mostly Cloudy
5:35 PM 21.2 °F 14.9 °F 19.4 °F 93% 29.91 in 10.0 mi West 4.6 mph - N/A   Mostly Cloudy
5:55 PM 21.2 °F 13.6 °F 19.4 °F 93% 29.91 in 10.0 mi West 5.8 mph - N/A   Mostly Cloudy
6:15 PM 21.2 °F 13.6 °F 19.4 °F 93% 29.91 in 10.0 mi West 5.8 mph - N/A   Overcast
6:35 PM 21.2 °F 14.9 °F 19.4 °F 93% 29.92 in 10.0 mi West 4.6 mph - N/A   Overcast
6:55 PM 21.2 °F 13.6 °F 19.4 °F 93% 29.92 in 10.0 mi West 5.8 mph - N/A   Overcast
7:15 PM 23.0 °F 14.7 °F 19.4 °F 86% 29.93 in 10.0 mi West 6.9 mph - N/A   Overcast
7:35 PM 23.0 °F 13.9 °F 19.4 °F 86% 29.93 in 10.0 mi West 8.1 mph - N/A   Overcast
7:55 PM 23.0 °F 13.9 °F 19.4 °F 86% 29.93 in 7.0 mi West 8.1 mph - N/A   Overcast
8:15 PM 21.2 °F 12.6 °F 21.2 °F 100% 29.93 in 5.0 mi West 6.9 mph - N/A   Overcast
8:35 PM 21.2 °F 12.6 °F 21.2 °F 100% 29.93 in 10.0 mi West 6.9 mph - N/A   Overcast
8:55 PM 21.2 °F 13.6 °F 19.4 °F 93% 29.94 in 10.0 mi West 5.8 mph - N/A   Overcast
9:15 PM 21.2 °F 12.6 °F 19.4 °F 93% 29.94 in 10.0 mi West 6.9 mph - N/A   Mostly Cloudy
9:35 PM 21.2 °F 11.7 °F 19.4 °F 93% 29.94 in 10.0 mi West 8.1 mph - N/A   Overcast
9:55 PM 19.4 °F 12.8 °F 19.4 °F 100% 29.95 in 10.0 mi West 4.6 mph - N/A   Mostly Cloudy
10:15 PM 19.4 °F 14.3 °F 19.4 °F 100% 29.96 in 10.0 mi WNW 3.5 mph - N/A   Mostly Cloudy
10:35 PM 19.4 °F 14.3 °F 17.6 °F 93% 29.96 in 10.0 mi West 3.5 mph - N/A   Overcast
10:55 PM 19.4 °F 12.8 °F 17.6 °F 93% 29.97 in 10.0 mi West 4.6 mph - N/A   Mostly Cloudy
11:15 PM 17.6 °F 12.3 °F 17.6 °F 100% 29.98 in 10.0 mi West 3.5 mph - N/A   Partly Cloudy
11:35 PM 15.8 °F - 15.8 °F 100% 29.98 in 10.0 mi Calm Calm - N/A   Clear
11:55 PM 15.8 °F - 14.0 °F 93% 29.98 in 10.0 mi Calm Calm - N/A   Clear